TimeEDT,TemperatureF,Dew PointF,Humidity,Sea Level PressureIn,VisibilityMPH,Wind Direction,Wind SpeedMPH,Gust SpeedMPH,PrecipitationIn,Events,Conditions,WindDirDegrees,DateUTC
12:15 AM,61.9,58.1,87,30.00,5.0,WSW,8.1,-,N/A,Rain,Heavy Rain,240,2012-10-05 04:15:00
12:35 AM,61.5,58.1,89,30.02,7.0,SW,6.9,-,N/A,Rain,Light Rain,230,2012-10-05 04:35:00
12:54 AM,61.2,57.9,89,30.02,10.0,SW,10.4,-,N/A,,Overcast,230,2012-10-05 04:54:00
1:15 AM,60.6,56.7,87,30.02,5.0,WSW,9.2,19.6,N/A,Rain,Light Rain,250,2012-10-05 05:15:00
1:35 AM,59.5,55.2,86,30.03,10.0,West,18.4,25.3,N/A,,Overcast,270,2012-10-05 05:35:00
1:54 AM,57.9,52.0,81,30.03,10.0,West,10.4,17.3,N/A,,Overcast,270,2012-10-05 05:54:00
2:15 AM,57.4,52.0,82,30.03,10.0,West,6.9,-,N/A,Rain,Light Rain,260,2012-10-05 06:15:00
2:35 AM,57.2,52.0,83,30.03,10.0,West,9.2,-,N/A,Rain,Rain,260,2012-10-05 06:35:00
2:54 AM,56.5,51.3,83,30.03,10.0,WSW,9.2,-,N/A,Rain,Light Rain,250,2012-10-05 06:54:00
3:15 AM,56.3,51.8,85,30.03,10.0,WSW,10.4,-,N/A,,Overcast,250,2012-10-05 07:15:00
3:35 AM,55.8,51.3,85,30.02,10.0,WSW,6.9,-,N/A,Rain,Light Rain,240,2012-10-05 07:35:00
3:55 AM,55.6,51.3,85,30.02,10.0,WSW,10.4,-,N/A,,Overcast,250,2012-10-05 07:55:00
4:15 AM,55.4,50.4,83,30.02,10.0,WSW,9.2,-,N/A,,Overcast,250,2012-10-05 08:15:00
4:34 AM,54.9,49.1,81,30.03,10.0,WSW,6.9,-,N/A,,Overcast,250,2012-10-05 08:34:00
4:55 AM,54.7,49.6,83,30.04,10.0,WSW,9.2,-,N/A,,Overcast,250,2012-10-05 08:55:00
5:15 AM,54.7,48.9,81,30.05,10.0,West,10.4,-,N/A,,Overcast,260,2012-10-05 09:15:00
5:35 AM,53.8,48.0,81,30.05,10.0,West,9.2,-,N/A,,Scattered Clouds,260,2012-10-05 09:35:00
5:55 AM,53.2,47.5,81,30.05,10.0,West,8.1,-,N/A,,Clear,260,2012-10-05 09:55:00
6:14 AM,53.1,47.1,80,30.04,10.0,West,9.2,-,N/A,,Clear,270,2012-10-05 10:14:00
6:35 AM,52.5,46.0,79,30.05,10.0,West,8.1,-,N/A,,Clear,270,2012-10-05 10:35:00
6:55 AM,51.8,45.1,78,30.04,10.0,West,9.2,-,N/A,,Clear,270,2012-10-05 10:55:00
7:15 AM,51.4,44.6,77,30.05,10.0,West,6.9,-,N/A,,Clear,270,2012-10-05 11:15:00
7:35 AM,50.9,44.1,77,30.05,10.0,West,8.1,-,N/A,,Clear,260,2012-10-05 11:35:00
7:54 AM,50.7,42.4,73,30.06,10.0,West,8.1,-,N/A,,Clear,260,2012-10-05 11:54:00
8:15 AM,50.4,42.3,74,30.06,10.0,West,8.1,-,N/A,,Clear,270,2012-10-05 12:15:00
8:35 AM,50.2,42.4,75,30.06,10.0,West,9.2,-,N/A,,Clear,260,2012-10-05 12:35:00
8:54 AM,50.2,41.4,72,30.06,10.0,West,8.1,-,N/A,,Clear,270,2012-10-05 12:54:00
9:15 AM,50.7,42.1,72,30.07,10.0,WSW,6.9,-,N/A,,Clear,250,2012-10-05 13:15:00
9:34 AM,50.9,42.1,72,30.07,10.0,West,6.9,-,N/A,,Clear,260,2012-10-05 13:34:00
9:55 AM,50.9,41.5,70,30.07,10.0,West,10.4,-,N/A,,Clear,260,2012-10-05 13:55:00
10:14 AM,51.1,41.0,68,30.07,10.0,West,11.5,16.1,N/A,,Clear,260,2012-10-05 14:14:00
10:35 AM,50.9,40.3,67,30.07,10.0,West,10.4,16.1,N/A,,Scattered Clouds,270,2012-10-05 14:35:00
10:54 AM,51.1,40.1,66,30.06,10.0,West,11.5,-,N/A,,Scattered Clouds,270,2012-10-05 14:54:00
11:15 AM,51.3,40.1,66,30.06,10.0,West,10.4,-,N/A,,Mostly Cloudy,270,2012-10-05 15:15:00
11:35 AM,52.3,40.6,64,30.06,10.0,West,10.4,-,N/A,,Mostly Cloudy,270,2012-10-05 15:35:00
11:54 AM,52.7,40.6,64,30.05,10.0,WSW,13.8,-,N/A,,Mostly Cloudy,250,2012-10-05 15:54:00
12:35 PM,53.8,40.3,60,30.05,10.0,West,10.4,-,N/A,,Scattered Clouds,260,2012-10-05 16:35:00
12:54 PM,54.7,40.3,58,30.04,10.0,SW,9.2,-,N/A,,Clear,230,2012-10-05 16:54:00
1:15 PM,55.2,39.9,56,30.03,10.0,WSW,8.1,-,N/A,,Clear,240,2012-10-05 17:15:00
1:35 PM,55.6,38.1,52,30.04,10.0,WSW,11.5,-,N/A,,Clear,250,2012-10-05 17:35:00
1:54 PM,55.4,37.8,52,30.03,10.0,WSW,11.5,17.3,N/A,,Scattered Clouds,250,2012-10-05 17:54:00
2:35 PM,56.8,37.4,48,30.02,10.0,WSW,12.7,17.3,N/A,,Mostly Cloudy,250,2012-10-05 18:35:00
2:54 PM,57.4,36.9,46,30.01,10.0,West,13.8,17.3,N/A,,Mostly Cloudy,260,2012-10-05 18:54:00
3:15 PM,55.8,36.5,48,30.00,10.0,WSW,11.5,-,N/A,,Mostly Cloudy,250,2012-10-05 19:15:00
3:35 PM,55.0,36.1,49,30.00,10.0,WSW,9.2,-,N/A,,Overcast,250,2012-10-05 19:35:00
3:55 PM,54.7,36.0,49,30.00,10.0,WSW,11.5,18.4,N/A,,Overcast,250,2012-10-05 19:55:00
4:15 PM,52.9,39.9,61,29.98,10.0,WSW,9.2,-,N/A,Rain,Light Rain,240,2012-10-05 20:15:00
4:34 PM,52.3,40.3,64,29.98,10.0,WSW,9.2,-,N/A,Rain,Light Rain,250,2012-10-05 20:34:00
4:55 PM,52.0,39.2,62,29.98,10.0,WSW,9.2,-,N/A,,Overcast,250,2012-10-05 20:55:00
5:15 PM,50.7,38.7,63,29.98,10.0,SW,10.4,-,N/A,Rain,Light Rain,230,2012-10-05 21:15:00
5:35 PM,49.3,39.0,68,29.98,10.0,WSW,8.1,-,N/A,Rain,Light Rain,240,2012-10-05 21:35:00
5:55 PM,48.2,40.6,75,29.99,7.0,WSW,6.9,-,N/A,Rain,Light Rain,240,2012-10-05 21:55:00
6:14 PM,47.7,41.9,80,30.00,10.0,SW,5.8,-,N/A,Rain,Light Rain,230,2012-10-05 22:14:00
6:35 PM,47.3,41.0,79,29.99,10.0,WSW,9.2,-,N/A,Rain,Light Rain,250,2012-10-05 22:35:00
7:15 PM,46.9,41.9,83,29.99,10.0,WSW,8.1,-,N/A,,Overcast,240,2012-10-05 23:15:00
7:35 PM,46.8,42.4,85,29.99,10.0,WSW,6.9,-,N/A,Rain,Light Rain,240,2012-10-05 23:35:00
7:54 PM,46.6,42.4,85,29.98,10.0,SSW,4.6,-,N/A,,Overcast,200,2012-10-05 23:54:00
8:15 PM,46.6,42.8,87,29.99,10.0,WSW,5.8,-,N/A,,Overcast,250,2012-10-06 00:15:00
8:35 PM,46.6,42.3,85,30.00,10.0,WSW,9.2,-,N/A,,Overcast,240,2012-10-06 00:35:00
8:54 PM,46.2,42.1,85,29.99,10.0,WSW,9.2,-,N/A,,Overcast,240,2012-10-06 00:54:00
9:15 PM,46.0,42.1,86,29.98,10.0,SW,5.8,-,N/A,Rain,Light Rain,230,2012-10-06 01:15:00
9:34 PM,45.9,41.9,86,29.97,10.0,WSW,6.9,-,N/A,Rain,Light Rain,250,2012-10-06 01:34:00
9:55 PM,45.7,41.9,87,29.98,10.0,WSW,8.1,-,N/A,Rain,Light Rain,240,2012-10-06 01:55:00
10:15 PM,45.5,41.7,87,29.97,10.0,SW,4.6,-,N/A,,Light Drizzle,220,2012-10-06 02:15:00
10:34 PM,45.5,41.5,86,29.96,10.0,SW,5.8,-,N/A,,Overcast,220,2012-10-06 02:34:00
10:55 PM,45.1,41.4,87,29.96,10.0,SW,6.9,-,N/A,,Overcast,230,2012-10-06 02:55:00
11:34 PM,45.0,41.2,87,29.95,10.0,SW,6.9,-,N/A,,Overcast,230,2012-10-06 03:34:00
11:55 PM,45.0,41.2,87,29.96,10.0,SW,5.8,-,N/A,,Overcast,230,2012-10-06 03:55:00